Wind_Speed
18 12 15 19 16 19 21 24 24 25 20 17 25 24 24 24 35 25 39 27 35 39 35 30 31 29 29 24 28 33 31 31 35 31 23 22 17 17 14 13 14 11 11 10
13 17 20 21 17 23 23 24 25 24 23 21 21 26 29 23 28 35 29 32 30 34 37 37 36 32 30 29 32 35 31 37 36 29 25 22 19 17 15 14 13 12 11 11
17 19 19 13 17 23 19 20 23 24 26 23 20 24 25 27 27 34 32 24 28 28 32 35 36 35 31 30 35 36 35 38 39 30 27 26 22 20 17 15 13 11 9 8
16 21 19 20 22 18 21 22 22 24 21 16 21 19 24 26 25 25 29 32 31 30 29 30 36 29 33 31 32 35 39 38 36 32 29 29 27 23 17 20 17 11 8 6
21 22 12 16 14 13 20 20 21 17 22 20 25 15 19 26 29 26 25 34 35 34 32 32 33 33 33 31 38 34 38 39 37 31 27 28 24 27 24 18 12 8 7 10
24 28 19 20 19 12 15 16 20 20 15 17 24 21 19 23 31 31 29 41 41 39 34 33 32 34 30 32 37 37 40 36 39 36 32 29 29 28 23 17 15 11 7 6
13 18 21 20 15 15 17 14 7 7 10 16 19 22 21 25 28 29 29 37 40 42 35 35 33 34 33 33 38 42 41 39 34 32 32 29 23 21 18 16 15 13 11 10
9 6 4 3 13 10 16 16 10 11 9 11 17 19 20 28 27 22 22 31 38 40 35 35 34 35 37 36 41 38 38 36 34 32 31 28 26 23 21 17 18 18 15 14
7 6 6 12 12 12 11 18 19 22 22 16 15 12 25 21 28 23 21 20 36 36 38 35 35 37 40 42 38 41 38 40 38 32 30 30 26 24 23 24 22 17 14 16
2 9 10 11 18 17 18 4 6 10 9 17 15 15 13 19 27 14 17 12 17 38 37 36 36 38 47 43 38 38 41 44 39 34 30 28 28 28 23 20 18 18 16 13
2 5 7 7 9 17 8 7 10 11 14 12 7 8 14 12 26 23 17 19 20 34 36 38 36 38 52 41 41 40 40 42 37 33 32 32 30 26 22 21 18 14 14 14
5 5 12 23 23 21 20 16 15 9 12 12 14 6 17 22 19 23 21 26 27 26 38 38 35 30 21 41 40 42 43 45 38 35 39 35 31 24 23 20 16 17 15 11
1 5 7 10 9 15 12 14 13 19 17 18 8 6 9 19 9 25 22 26 29 35 39 39 41 34 38 43 43 43 46 48 45 43 38 34 30 25 23 21 20 18 14 10
11 5 13 14 20 2 4 11 9 15 10 19 17 5 17 15 16 14 23 26 22 34 36 41 41 39 44 42 48 49 47 45 40 38 36 34 29 26 24 21 19 16 12 9
2 5 13 19 24 23 21 19 19 16 20 20 16 4 9 15 13 19 23 20 26 28 40 39 43 41 44 42 45 46 45 42 39 38 35 29 27 25 23 21 19 15 13 11
2 5 15 21 20 19 19 19 19 18 16 16 21 14 9 15 18 21 20 21 31 33 34 38 45 45 43 43 44 46 45 41 35 35 31 28 28 26 24 21 18 16 15 14
3 3 6 10 7 1 6 15 18 18 18 14 15 2 5 15 15 18 29 25 34 31 34 42 45 43 41 42 46 47 46 42 36 32 31 31 29 26 22 20 18 16 15 14
3 2 3 7 11 4 9 18 4 9 9 3 11 8 4 10 18 25 39 43 36 38 41 41 43 43 43 45 47 50 46 38 36 34 32 29 26 24 21 19 17 16 15 15
10 3 4 4 4 1 14 16 10 9 6 14 9 2 3 8 2 11 30 40 41 42 43 45 47 48 50 50 47 44 39 37 35 32 29 26 24 23 21 20 19 17 16 16
13 10 3 4 3 6 8 20 21 12 4 8 4 4 7 13 2 5 25 44 44 47 48 49 50 52 54 44 43 43 40 36 34 31 29 26 23 22 22 20 19 18 16 15
8 6 6 9 3 5 15 25 15 4 7 19 9 10 7 4 8 16 32 44 46 49 51 51 51 49 48 46 43 43 39 36 32 31 29 26 24 23 22 21 18 17 15 14
5 7 5 6 5 3 30 15 7 12 26 7 18 17 24 26 25 26 33 44 49 50 50 51 51 43 38 39 43 42 39 33 32 30 29 27 24 22 21 20 18 16 14 12
2 3 4 4 4 10 17 18 21 28 2 17 20 20 29 29 26 28 34 42 48 49 50 45 45 44 39 35 34 40 34 32 31 30 28 27 24 22 20 18 17 15 12 10
5 3 3 6 1 11 18 24 26 16 17 18 19 26 29 30 31 32 35 40 45 50 47 43 43 40 38 33 33 34 33 32 31 31 29 26 25 23 20 18 16 16 15 10
2 6 6 4 4 15 11 20 19 15 20 25 25 26 32 34 31 35 35 37 43 45 42 39 39 38 36 34 33 32 31 31 31 30 29 27 25 23 21 20 17 18 17 13
3 3 3 3 11 8 9 16 11 16 21 23 32 31 30 35 36 37 36 37 39 40 40 39 36 37 35 34 33 30 30 30 33 32 25 23 23 22 23 23 23 18 14 11
Wind_Direction
258 242 245 256 263 269 275 280 283 287 286 275 280 265 242 246 245 243 228 229 226 225 230 218 213 208 211 208 194 201 202 193 178 182 177 177 178 172 169 167 183 167 179 201
253 257 247 268 300 292 275 269 267 274 276 266 261 269 262 243 230 237 235 224 228 222 223 223 219 212 204 200 190 199 200 184 180 171 176 175 169 169 168 171 165 175 208 226
275 273 288 258 258 272 266 276 280 279 278 272 265 261 265 249 242 226 233 228 232 230 214 217 213 207 204 191 193 195 190 184 179 173 171 165 164 162 161 169 169 193 207 213
277 272 263 256 265 265 264 269 267 262 272 260 248 256 235 243 232 233 229 226 231 232 222 211 206 197 199 188 185 193 182 188 180 173 167 165 163 159 165 163 179 180 203 245
264 279 268 274 262 275 272 282 268 256 256 266 252 256 263 226 231 225 218 228 228 229 221 215 198 201 187 188 190 186 186 180 179 168 170 160 165 171 175 179 160 175 188 221
267 268 262 258 260 253 264 266 257 249 261 257 249 250 242 248 224 218 220 219 220 224 216 211 197 196 182 190 184 180 185 178 179 161 165 175 174 175 170 159 143 134 175 164
275 253 238 246 260 256 240 246 245 239 232 251 243 239 249 251 220 217 221 207 208 216 208 204 194 182 187 183 178 174 178 167 163 161 169 175 173 159 145 139 130 147 167 160
288 296 246 201 239 250 237 237 235 267 252 270 252 227 238 245 251 215 225 206 201 207 198 193 190 184 180 176 170 166 164 158 162 166 164 168 153 147 133 133 141 166 161 151
317 249 303 274 263 251 246 243 257 270 288 275 254 213 254 235 240 221 210 205 194 194 191 186 182 186 175 165 162 162 161 156 165 163 157 152 143 130 149 163 171 171 150 149
324 289 276 271 288 247 245 251 260 244 268 268 266 237 233 224 222 221 176 196 208 184 184 185 177 175 154 165 162 159 160 155 158 154 148 139 135 160 167 159 152 149 150 158
207 251 281 287 241 247 221 247 232 268 257 271 271 289 343 262 210 199 196 203 217 187 180 181 171 179 162 155 159 161 156 150 148 145 140 141 156 159 149 152 150 152 154 152
264 276 271 270 264 244 258 246 252 227 240 264 295 273 276 293 218 201 204 191 204 204 183 170 167 155 136 146 154 156 151 150 143 143 153 158 159 145 146 147 148 146 145 148
196 245 290 290 231 230 235 252 255 240 266 255 263 307 310 308 268 200 204 190 188 199 178 160 137 142 153 146 159 149 151 149 153 155 157 157 151 141 140 143 146 145 146 128
227 221 243 265 285 267 274 276 236 246 258 258 255 124 281 301 347 330 207 182 190 194 159 145 133 140 149 147 149 149 151 155 153 158 156 153 146 143 144 141 142 139 132 127
259 263 252 263 260 268 268 259 251 243 252 253 263 108 285 293 319 307 309 238 176 190 146 127 128 140 148 145 148 153 148 145 152 152 151 149 145 143 143 146 137 132 124 117
228 272 286 283 265 242 250 249 252 247 252 252 261 240 275 295 294 295 292 271 174 112 114 125 140 145 142 143 147 150 148 141 141 148 143 140 143 146 141 136 131 124 119 113
247 275 302 279 354 221 238 249 236 243 241 252 237 292 258 296 298 296 283 254 124 125 121 127 139 144 139 145 148 147 146 145 144 134 132 131 133 132 127 123 120 122 117 114
251 246 261 280 297 224 18 24 234 214 240 213 125 187 314 287 292 299 248 123 123 125 128 133 141 141 139 140 139 139 133 128 124 122 124 125 124 122 123 121 119 113 113 110
215 243 276 273 304 283 21 1 346 332 25 85 121 58 218 272 273 12 86 109 120 126 134 137 142 142 138 133 128 126 125 123 122 122 122 123 124 121 119 116 113 111 109 106
314 193 224 295 328 31 358 336 314 283 157 105 50 206 195 219 181 360 87 116 117 126 134 135 135 133 130 126 126 123 122 121 120 123 121 121 120 118 116 114 114 113 110 107
335 351 313 329 351 95 355 331 319 339 359 317 53 113 99 81 95 116 112 115 123 127 129 131 130 126 123 123 123 118 119 118 121 121 120 118 118 116 116 115 114 115 114 111
333 321 344 326 352 353 0 346 10 313 308 62 83 104 103 101 104 107 110 115 121 122 124 126 120 118 120 123 120 117 116 121 120 119 118 116 114 113 113 113 112 109 105 100
337 358 301 333 328 330 328 323 319 309 77 75 94 104 107 104 103 109 111 116 120 122 121 118 117 115 115 116 118 117 118 119 119 117 115 113 112 111 109 107 102 99 99 97
344 29 256 315 120 332 328 344 358 52 88 98 108 113 112 106 109 109 113 116 118 122 118 117 115 113 113 114 115 114 119 120 119 117 114 113 110 107 105 106 112 122 109 96
322 308 318 270 4 328 349 359 9 68 94 104 107 114 113 114 108 113 113 114 116 116 117 115 116 116 116 116 116 118 120 122 120 119 117 117 127 132 131 125 118 128 119 110
318 317 331 320 330 291 335 6 47 85 97 105 115 109 112 119 115 116 112 114 115 115 116 115 116 115 117 117 117 119 122 122 121 114 114 114 112 109 108 109 108 105 98 95
Height
1447 1452 1445 1432 1429 1427 1428 1422 1420 1411 1411 1415 1408 1402 1405 1407 1407 1401 1406 1407 1410 1414 1418 1421 1427 1433 1439 1444 1448 1450 1458 1465 1472 1478 1486 1491 1495 1500 1504 1507 1508 1510 1512 1513
1444 1441 1436 1431 1430 1431 1424 1423 1420 1416 1413 1414 1409 1406 1400 1395 1397 1400 1397 1399 1402 1406 1410 1415 1420 1426 1431 1437 1442 1446 1455 1461 1469 1475 1483 1488 1492 1497 1502 1504 1505 1508 1509 1510
1439 1434 1430 1433 1438 1432 1425 1424 1419 1418 1411 1407 1405 1403 1400 1392 1390 1392 1393 1395 1397 1398 1401 1406 1411 1418 1426 1431 1436 1440 1450 1459 1466 1472 1479 1484 1489 1495 1499 1501 1503 1504 1507 1509
1434 1428 1424 1426 1423 1424 1428 1419 1416 1416 1413 1413 1400 1402 1388 1394 1382 1385 1387 1391 1394 1395 1397 1400 1405 1413 1420 1427 1433 1439 1446 1455 1465 1469 1476 1479 1485 1490 1495 1499 1501 1502 1506 1507
1432 1428 1428 1424 1418 1420 1420 1417 1414 1417 1408 1407 1397 1401 1385 1376 1375 1377 1382 1386 1389 1391 1392 1395 1399 1408 1415 1424 1429 1436 1443 1447 1460 1467 1473 1478 1484 1487 1490 1495 1498 1501 1505 1504
1425 1421 1417 1414 1413 1416 1415 1414 1410 1404 1401 1411 1396 1391 1378 1370 1364 1366 1371 1375 1382 1384 1386 1390 1394 1402 1410 1421 1426 1434 1441 1451 1456 1460 1469 1475 1478 1484 1489 1492 1492 1498 1501 1505
1413 1405 1405 1409 1408 1409 1409 1411 1419 1419 1415 1398 1379 1384 1373 1355 1346 1349 1349 1358 1369 1375 1379 1384 1388 1396 1407 1416 1424 1430 1439 1444 1453 1459 1464 1472 1478 1485 1487 1490 1494 1500 1501 1505
1422 1410 1401 1403 1407 1408 1405 1401 1408 1401 1394 1393 1369 1373 1366 1348 1342 1339 1343 1349 1358 1365 1370 1377 1384 1391 1402 1410 1420 1427 1436 1443 1452 1456 1464 1472 1478 1483 1485 1492 1495 1498 1500 1504
1425 1417 1406 1404 1402 1403 1401 1403 1391 1395 1384 1383 1362 1357 1351 1340 1341 1338 1340 1340 1347 1356 1363 1372 1380 1387 1392 1408 1418 1425 1433 1440 1448 1456 1464 1472 1476 1479 1483 1487 1491 1497 1501 1505
1443 1430 1407 1407 1404 1395 1394 1395 1405 1394 1396 1380 1354 1351 1346 1342 1340 1337 1337 1344 1344 1350 1358 1369 1376 1384 1389 1407 1416 1425 1432 1438 1446 1457 1463 1468 1473 1476 1482 1489 1494 1497 1501 1504
1441 1437 1412 1412 1404 1396 1401 1405 1399 1389 1381 1375 1375 1366 1348 1340 1334 1342 1342 1349 1348 1348 1354 1365 1373 1382 1372 1399 1414 1425 1432 1438 1446 1454 1461 1469 1471 1477 1483 1489 1494 1498 1501 1505
1434 1433 1414 1397 1384 1384 1385 1387 1386 1395 1378 1359 1356 1366 1356 1347 1332 1337 1340 1346 1349 1347 1353 1361 1372 1375 1342 1389 1414 1422 1430 1435 1444 1456 1458 1463 1471 1478 1484 1488 1494 1499 1502 1507
1439 1429 1412 1384 1371 1376 1380 1378 1378 1380 1375 1378 1382 1373 1360 1344 1330 1335 1338 1340 1343 1346 1350 1360 1372 1383 1395 1403 1416 1421 1425 1432 1443 1450 1456 1464 1473 1478 1484 1489 1495 1500 1504 1507
1434 1428 1418 1402 1385 1400 1395 1382 1379 1381 1383 1360 1356 1387 1365 1349 1353 1344 1336 1339 1341 1344 1349 1360 1374 1389 1398 1408 1412 1417 1426 1434 1442 1450 1458 1466 1474 1479 1485 1491 1497 1501 1505 1509
1430 1416 1409 1399 1392 1389 1386 1382 1381 1375 1369 1371 1358 1383 1372 1358 1360 1357 1350 1341 1341 1342 1347 1364 1377 1393 1402 1410 1413 1420 1430 1437 1445 1453 1462 1469 1474 1481 1487 1493 1498 1503 1507 1511
1427 1413 1398 1382 1368 1370 1373 1369 1369 1367 1368 1365 1361 1367 1378 1362 1364 1358 1350 1344 1343 1354 1364 1370 1383 1397 1405 1411 1416 1424 1432 1441 1450 1456 1463 1470 1476 1483 1491 1497 1502 1506 1511 1513
1425 1415 1403 1372 1359 1371 1373 1361 1360 1360 1358 1357 1363 1369 1371 1359 1357 1358 1349 1341 1348 1365 1371 1377 1389 1402 1408 1413 1419 1426 1436 1445 1451 1458 1466 1475 1482 1490 1496 1502 1506 1508 1511 1513
1420 1417 1407 1383 1365 1364 1363 1355 1346 1349 1350 1349 1368 1373 1369 1366 1366 1360 1342 1338 1356 1365 1374 1386 1397 1406 1412 1420 1426 1433 1442 1449 1456 1466 1475 1482 1489 1495 1500 1504 1506 1510 1512 1514
1416 1415 1399 1383 1375 1374 1364 1372 1375 1369 1360 1356 1362 1364 1372 1371 1370 1359 1338 1347 1361 1371 1382 1392 1403 1410 1418 1427 1434 1439 1448 1456 1464 1473 1481 1487 1493 1498 1502 1506 1509 1513 1516 1517
1400 1402 1405 1385 1361 1369 1392 1380 1372 1362 1360 1364 1363 1367 1372 1374 1371 1364 1355 1360 1370 1379 1390 1400 1409 1417 1424 1433 1439 1445 1452 1461 1470 1479 1486 1492 1497 1501 1505 1509 1512 1516 1519 1521
1403 1395 1389 1380 1373 1380 1396 1384 1366 1363 1376 1365 1365 1367 1372 1374 1376 1376 1373 1374 1382 1389 1397 1406 1415 1421 1429 1438 1444 1450 1459 1468 1476 1483 1488 1495 1500 1504 1508 1513 1517 1520 1522 1523
1419 1414 1400 1389 1382 1380 1398 1386 1386 1388 1373 1371 1373 1377 1377 1379 1382 1383 1383 1384 1390 1397 1406 1414 1421 1432 1442 1447 1449 1455 1464 1474 1480 1486 1491 1498 1503 1509 1513 1516 1520 1522 1525 1526
1420 1430 1426 1419 1408 1412 1410 1405 1396 1385 1379 1378 1379 1383 1382 1385 1390 1392 1394 1396 1401 1406 1412 1421 1428 1436 1445 1451 1457 1459 1470 1476 1483 1490 1497 1502 1507 1512 1517 1520 1523 1526 1530 1532
1430 1432 1425 1421 1416 1413 1409 1403 1394 1387 1385 1386 1388 1389 1390 1392 1396 1399 1402 1405 1409 1414 1420 1429 1435 1442 1450 1457 1463 1468 1476 1482 1489 1495 1500 1507 1511 1517 1520 1523 1525 1526 1530 1533
1435 1433 1427 1420 1418 1416 1412 1408 1402 1397 1394 1393 1395 1396 1398 1399 1404 1406 1410 1414 1417 1422 1430 1437 1443 1450 1456 1463 1470 1477 1483 1488 1493 1498 1504 1508 1511 1513 1516 1519 1524 1528 1529 1531
1436 1433 1429 1421 1426 1423 1418 1413 1408 1403 1402 1402 1400 1403 1407 1408 1411 1415 1418 1422 1426 1431 1438 1444 1451 1456 1464 1470 1477 1483 1488 1493 1497 1501 1507 1513 1516 1518 1521 1525 1528 1530 1532 1534